Regional Weather Roundup
Issued by NWS Memphis, TN

Home | Current Version | Previous Version | Text Only | Print | Product List | Glossary On
Versions: 1 2 3 4 5 6 7 8 9 10 11 12 13 14 15 16 17 18 19 20 21 22 23 24 25 26 27 28 29 30 31 32 33 34 35 36 37 38 39 40 41 42 43 44 45 46 47 48 49 50
000
ASUS44 KMEG 232110
RWRMEG
MEMPHIS CWA HOURLY WEATHER ROUNDUP
NATIONAL WEATHER SERVICE MEMPHIS TN
400 PM CDT TUE SEP 23 2014

...WEST TENNESSEE...

CITY           SKY/WX    TMP DP  RH WIND       PRES   REMARKS
MEMPHIS INTL   MOSUNNY   81  43  26 E10       30.17F
NWS MEMPHIS      N/A     77 N/A N/A MISG        N/A
JACKSON        SUNNY     79  46  31 E10       30.19F
LEXINGTON      SUNNY     75  46  35 NE7       30.18F
SAVANNAH       SUNNY     82  52  34 N8        30.17F
DYERSBURG      SUNNY     77  43  29 E6        30.20F
UNION CITY     SUNNY     75  45  33 NE9       30.19F
PARIS          SUNNY     75  45  33 VRB7      30.21F
HUNTINGDON     SUNNY     76  38  25 E7        30.19F


...EASTERN ARKANSAS...

CITY           SKY/WX    TMP DP  RH WIND       PRES   REMARKS
JONESBORO      SUNNY     79  44  28 E12       30.18F
WEST MEMPHIS   SUNNY     80  44  27 E12       30.15F
BATESVILLE     SUNNY     81  39  22 NE7       30.18F
NEWPORT        SUNNY     79  42  26 N10       30.19F
WALNUT RIDGE   SUNNY     77  46  33 N10       30.19F
BLYTHEVILLE    SUNNY     79  50  36 E8        30.19F
SEARCY           N/A    N/A N/A N/A MISG        N/A
STUTTGART      SUNNY     79  43  27 NE13G18   30.16F
PINE BLUFF     SUNNY     80  44  27 NE10      30.15F
MONTICELLO     SUNNY     81  42  25 N8        30.13F


...NORTH MISSISSIPPI...

CITY           SKY/WX    TMP DP  RH WIND       PRES   REMARKS
TUPELO         SUNNY     80  54  40 NE8       30.14F
OXFORD         SUNNY     77  50  38 NE7       30.16F
OLIVE BRANCH   MOSUNNY   77  45  31 NE10      30.17
TUNICA         SUNNY     79  41  25 NE9       30.15F
CORINTH        SUNNY     81  50  34 NE9       30.15F
GRENADA        SUNNY     79  48  34 NE5       30.13F
GREENWOOD      SUNNY     83  50  31 MISG      30.12F
COLUMBUS       SUNNY     83  52  34 NE5       30.11F
STARKVILLE     FAIR      81  52  36 E9        30.12F
GOLDEN TRIANGL SUNNY     81  55  41 E5        30.12F


...SOUTHEAST MISSOURI...

CITY           SKY/WX    TMP DP  RH WIND       PRES   REMARKS
WEST PLAINS    SUNNY     73  40  30 SE7       30.23F
POPLAR BLUFF   MOSUNNY   76  45  33 N6        30.20F
CAPE GIRARDEAU SUNNY     76  46  34 NE9       30.22F


...NORTHWEST ALABAMA...

CITY           SKY/WX    TMP DP  RH WIND       PRES   REMARKS
MUSCLE SHOALS  SUNNY     81  51  35 VRB5      30.17F


...MIDDLE TENNESSEE...

CITY           SKY/WX    TMP DP  RH WIND       PRES   REMARKS
NASHVILLE      SUNNY     77  47  34 NE9       30.21F
CLARKSVILLE    SUNNY     78  46  32 NE9       30.21F
DICKSON        SUNNY     75  45  33 NE7       30.21F
COLUMBIA       SUNNY     79  45  29 N7        30.18F
LEWISBURG      SUNNY     78  42  27 E3        30.19F


...WESTERN KENTUCKY...

CITY           SKY/WX    TMP DP  RH WIND       PRES   REMARKS
PADUCAH        SUNNY     77  47  34 E9        30.21F
FORT CAMPBELL  SUNNY     77  45  32 NE9       30.21F


...CENTRAL ARKANSAS...

CITY           SKY/WX    TMP DP  RH WIND       PRES   REMARKS
LITTLE ROCK    MOSUNNY   80  42  25 NE12      30.16F


SKY/WX REPORTED AS FAIR MEANS FEW OR NO CLOUDS BELOW
12 THOUSAND FEET.




USA.gov is the U.S. government's official web portal to all federal, state and local government web resources and services.